Wind_Speed
3 2 2 2 2 2 2 1 1 1 2 2 2 2 2 3 3 3 3 4 4 4 4 4 5 5 6 6 7 7 7 8 8 8 8 8 8 8 8 8 8 7 7
3 3 3 3 3 3 2 2 3 3 3 3 3 3 3 3 4 4 5 5 5 5 6 6 6 6 7 7 8 8 8 8 9 9 10 9 9 9 9 9 9 9 8
4 4 5 5 5 4 4 4 4 4 5 4 4 5 5 5 5 5 6 6 7 7 7 7 8 8 8 9 9 9 9 9 10 10 10 10 10 10 10 10 10 9 9
6 6 6 6 6 6 5 5 5 5 5 5 5 6 6 6 7 7 7 8 8 8 9 9 9 10 10 10 10 10 10 10 10 10 10 11 11 11 11 11 11 10 10
7 7 7 8 7 7 7 6 6 6 6 5 6 6 7 8 8 8 9 9 9 10 10 10 10 10 10 11 11 11 11 11 11 11 11 12 12 11 11 11 11 11 11
8 8 8 8 8 8 8 7 8 7 7 7 7 7 8 8 9 9 9 10 10 10 11 11 11 11 11 11 11 11 12 12 12 12 12 12 12 12 12 12 12 12 12
9 9 9 9 9 9 9 9 8 8 9 9 8 9 9 9 9 9 10 10 10 11 11 11 11 12 12 12 12 13 13 13 13 13 13 13 13 14 13 13 13 13 13
10 9 10 10 9 9 10 9 9 9 9 8 9 9 9 9 9 9 10 11 10 10 10 11 12 12 13 14 14 14 14 14 15 15 15 14 14 15 14 14 13 14 14
10 10 10 10 10 9 9 9 9 9 9 9 9 9 9 9 9 10 10 11 11 11 11 11 12 12 13 14 15 16 16 16 16 15 15 15 15 15 15 14 14 14 14
10 10 10 10 9 9 9 9 9 10 10 10 10 9 9 9 9 10 11 11 12 12 12 12 13 13 13 14 15 15 16 16 17 16 16 16 16 16 15 15 16 16 15
9 9 10 10 10 10 10 9 10 10 10 11 11 10 10 10 10 10 11 12 12 13 12 12 13 13 14 15 15 16 16 16 17 17 17 17 17 16 16 16 16 16 16
9 9 10 10 10 10 10 10 10 11 11 11 11 11 11 12 12 12 12 12 12 13 12 12 12 13 14 15 15 15 16 17 17 18 17 17 16 16 16 17 17 17 16
9 9 9 10 10 10 10 10 10 11 11 12 12 12 12 12 13 12 12 12 12 12 12 12 13 14 14 15 15 15 15 16 17 17 17 16 16 16 16 17 17 17 17
8 9 9 10 9 10 10 11 11 12 12 13 13 12 13 13 12 13 13 13 14 14 13 13 13 13 14 15 15 15 15 15 16 16 16 16 17 17 16 16 17 17 17
9 9 9 9 9 10 10 11 12 12 13 13 13 13 13 13 14 14 14 14 14 14 14 14 14 14 14 14 14 15 15 15 16 17 17 17 17 17 17 17 16 17 17
9 9 9 10 10 10 11 11 11 12 13 13 13 14 14 14 13 14 14 14 15 14 14 14 14 14 13 14 14 15 15 15 16 17 17 17 17 18 18 18 17 17 16
10 10 11 11 11 11 11 11 11 11 12 13 13 14 14 15 14 14 14 14 14 14 15 15 15 14 13 13 14 15 15 15 15 16 17 17 16 17 17 17 17 17 17
10 11 11 11 11 11 11 11 11 11 12 13 14 14 14 15 15 15 14 14 15 15 16 16 15 15 15 14 14 14 14 14 14 15 15 16 16 16 16 16 16 17 17
10 10 10 11 11 11 11 12 12 12 13 13 14 14 14 15 15 15 15 15 16 16 16 17 17 16 16 16 16 15 15 15 15 15 15 15 16 16 16 16 16 17 17
10 10 10 11 11 11 11 12 12 12 13 14 14 14 15 15 15 16 16 16 16 16 16 17 17 17 17 17 16 16 16 16 16 15 15 15 16 16 17 17 17 17 17
10 10 11 11 11 12 12 13 13 13 14 14 15 15 15 15 16 16 16 16 16 16 16 17 17 17 17 17 16 16 15 15 15 14 14 15 15 16 17 17 17 17 17
10 11 11 11 12 13 13 14 15 15 15 15 15 15 16 16 16 16 16 16 16 16 17 17 18 18 17 17 16 16 15 15 15 15 14 15 15 16 17 17 17 17 18
11 12 12 12 13 14 14 15 15 16 15 16 16 16 16 16 16 17 18 17 17 17 17 17 17 17 17 17 17 16 15 15 16 16 15 16 16 17 17 17 17 17 17
13 13 13 14 14 15 16 16 16 17 16 16 17 17 17 17 17 18 18 18 17 17 17 16 17 17 17 17 17 16 16 16 15 16 16 16 17 17 17 17 17 17 17
13 14 14 15 15 16 17 17 17 18 18 18 18 18 17 17 18 18 17 18 18 17 16 16 17 17 17 17 17 16 15 15 16 16 16 16 16 17 17 18 18 18 19
15 15 16 16 16 17 17 18 18 18 19 19 19 19 19 19 19 19 18 18 17 17 17 17 17 17 17 17 16 16 16 16 17 17 16 17 17 17 17 17 18 18 18
Wind_Direction
217 221 229 230 233 240 268 279 289 269 288 278 281 281 276 277 277 284 289 292 288 284 282 279 275 277 281 279 274 272 272 274 276 278 277 277 277 276 279 281 281 277 277
225 229 237 241 240 251 270 285 291 293 296 289 276 280 281 280 280 284 288 287 286 281 280 283 285 283 281 279 275 272 271 270 273 276 274 272 274 275 277 280 279 276 276
240 247 244 243 249 256 266 280 286 291 288 285 279 283 287 289 285 281 286 291 286 282 283 284 285 285 282 278 275 272 270 269 271 274 275 273 272 275 275 277 277 274 274
249 251 251 248 252 258 266 273 282 288 284 286 283 278 280 285 284 284 289 291 289 282 281 282 281 280 278 276 276 274 273 272 271 273 275 275 274 275 276 277 276 274 274
253 250 253 251 255 260 265 272 277 283 284 284 283 278 279 282 281 283 285 287 287 283 284 282 280 279 277 276 275 274 274 275 273 274 273 272 274 275 274 277 278 276 278
259 255 256 255 255 259 265 273 275 275 279 282 284 281 281 279 280 283 285 283 283 284 285 282 283 281 276 273 272 272 272 274 275 274 274 275 275 275 275 277 277 276 278
262 261 258 256 254 256 262 267 269 271 274 278 281 281 279 277 278 281 284 284 284 285 287 282 283 282 278 274 272 270 270 272 275 276 275 275 276 276 274 274 276 275 276
262 258 253 254 255 260 262 265 266 265 267 272 276 279 279 278 279 280 285 289 288 290 291 288 284 279 278 278 277 276 273 271 273 274 273 275 276 274 273 273 278 277 278
262 258 255 254 257 262 264 264 262 261 263 268 273 275 273 273 280 284 283 284 287 290 291 289 286 285 280 278 277 277 275 272 271 273 276 277 275 274 275 275 276 277 276
257 256 258 254 255 258 262 262 261 262 262 266 271 273 273 274 277 280 283 284 288 291 291 290 288 288 284 281 281 281 279 275 274 273 274 276 277 276 275 275 275 275 274
259 255 255 253 257 260 264 264 263 263 265 268 272 271 272 275 277 280 283 285 288 289 289 290 290 290 289 287 285 283 280 277 274 275 274 274 276 274 271 272 273 272 271
263 261 257 259 260 261 262 263 264 265 266 268 270 272 274 276 278 280 284 285 286 289 290 292 293 291 292 290 287 284 282 279 276 275 275 274 273 270 269 268 269 271 271
259 261 264 265 264 263 264 266 267 266 267 268 269 273 276 279 280 283 284 286 287 290 290 290 291 291 292 290 288 287 285 282 278 276 275 273 271 267 267 265 266 268 268
259 262 262 261 265 267 266 267 268 268 266 268 268 271 274 276 278 281 282 284 286 288 289 289 289 291 292 292 289 289 288 283 280 277 274 273 270 268 267 266 265 268 268
261 262 261 262 263 265 268 269 269 267 268 272 271 271 274 277 278 280 282 281 283 286 286 287 287 289 289 291 290 287 286 285 283 278 272 268 266 265 264 266 265 265 266
260 263 264 264 267 271 273 273 271 269 269 271 272 271 274 277 279 280 280 280 280 283 286 286 287 289 290 289 288 284 282 280 278 276 271 266 264 264 262 263 265 267 268
264 267 268 267 268 271 275 273 271 272 272 273 275 275 275 277 281 283 283 281 281 283 286 285 286 285 287 288 288 286 283 280 278 276 271 266 262 260 260 261 265 266 267
267 270 271 271 272 275 275 273 273 275 275 275 276 276 276 278 282 285 287 287 286 286 286 285 285 285 286 287 289 288 286 283 278 274 270 266 264 262 260 262 263 265 265
268 270 272 274 274 276 276 274 275 275 275 276 278 279 280 283 285 286 287 289 288 288 287 286 287 285 285 286 287 287 286 285 281 275 270 267 265 262 261 259 261 265 265
271 273 275 277 277 277 279 279 277 278 278 278 280 281 282 286 287 286 287 288 289 289 288 288 287 285 284 284 285 284 283 282 282 276 270 268 265 262 260 258 262 263 262
270 273 276 276 277 279 279 279 279 280 280 280 280 280 280 282 284 287 286 287 289 290 290 288 288 286 283 283 284 283 282 282 279 274 270 268 266 264 260 257 261 263 263
269 271 273 276 278 279 279 280 281 281 280 281 281 278 277 279 282 284 287 288 289 291 290 288 287 285 285 283 283 281 280 278 274 270 271 269 264 263 261 258 260 262 263
272 274 275 278 280 279 280 282 282 283 282 281 279 279 277 278 280 281 284 287 288 289 289 288 286 285 286 285 283 279 278 278 272 268 269 271 268 265 266 265 262 261 265
275 277 279 281 282 281 282 283 284 283 283 282 279 279 279 277 280 282 282 287 288 288 287 289 287 286 285 284 281 279 276 276 274 269 270 273 272 269 267 268 267 263 265
277 279 281 283 284 284 285 285 285 283 282 282 282 280 280 278 279 280 283 285 287 287 286 287 288 286 285 285 281 280 279 277 276 272 270 274 275 273 271 271 270 269 268
278 283 284 286 286 287 287 286 285 284 283 282 280 278 278 277 278 280 281 283 284 285 285 286 287 286 285 285 285 283 281 281 280 278 276 275 277 276 274 273 273 273 273
Height
5865 5865 5865 5866 5866 5866 5866 5866 5866 5866 5867 5867 5867 5867 5868 5868 5868 5869 5869 5869 5870 5870 5870 5870 5871 5871 5871 5871 5871 5871 5872 5872 5872 5872 5872 5872 5872 5872 5872 5872 5872 5872 5872
5864 5864 5865 5865 5865 5866 5866 5866 5866 5866 5866 5866 5866 5867 5867 5867 5868 5868 5868 5868 5869 5869 5869 5869 5869 5869 5869 5869 5869 5870 5870 5870 5870 5870 5870 5870 5870 5870 5870 5870 5870 5870 5870
5863 5864 5864 5864 5865 5865 5865 5865 5865 5865 5865 5865 5865 5866 5866 5866 5867 5867 5867 5867 5867 5867 5867 5867 5868 5868 5868 5867 5867 5868 5868 5868 5868 5868 5868 5868 5868 5868 5868 5869 5868 5868 5868
5862 5863 5863 5863 5864 5864 5864 5864 5864 5864 5864 5864 5864 5865 5865 5865 5865 5866 5866 5866 5866 5866 5866 5866 5866 5866 5866 5865 5865 5866 5866 5866 5866 5866 5866 5866 5866 5866 5866 5866 5866 5866 5866
5861 5861 5861 5862 5862 5862 5863 5863 5863 5863 5863 5863 5863 5863 5863 5864 5864 5864 5864 5864 5864 5864 5864 5864 5864 5864 5863 5863 5863 5863 5863 5863 5864 5864 5864 5864 5864 5864 5864 5864 5864 5864 5864
5860 5860 5860 5860 5860 5861 5861 5861 5861 5861 5862 5862 5862 5862 5862 5862 5862 5862 5862 5862 5862 5862 5862 5862 5861 5861 5861 5861 5861 5861 5861 5861 5861 5861 5861 5862 5862 5861 5861 5862 5862 5862 5861
5858 5858 5858 5858 5859 5859 5859 5860 5860 5860 5860 5860 5860 5860 5860 5860 5860 5860 5860 5860 5859 5859 5859 5859 5859 5859 5859 5858 5858 5858 5858 5858 5858 5858 5859 5859 5859 5859 5859 5859 5859 5859 5859
5855 5855 5856 5856 5857 5857 5858 5858 5858 5858 5858 5858 5858 5858 5858 5858 5858 5858 5858 5857 5857 5857 5857 5857 5856 5856 5856 5855 5855 5855 5855 5855 5855 5855 5855 5856 5856 5856 5856 5856 5856 5856 5856
5854 5854 5854 5854 5855 5856 5856 5856 5856 5856 5856 5856 5856 5856 5856 5856 5856 5856 5856 5855 5855 5855 5855 5854 5854 5853 5853 5852 5852 5852 5852 5852 5852 5852 5852 5852 5852 5853 5853 5853 5853 5853 5853
5852 5852 5853 5853 5853 5854 5854 5854 5854 5854 5854 5854 5854 5854 5854 5854 5854 5854 5854 5853 5853 5853 5852 5852 5851 5851 5850 5849 5848 5848 5847 5847 5848 5848 5849 5849 5849 5849 5849 5850 5850 5850 5850
5851 5851 5851 5851 5851 5851 5852 5852 5852 5852 5852 5852 5852 5852 5852 5852 5852 5852 5851 5851 5851 5850 5850 5849 5848 5848 5847 5846 5845 5844 5843 5843 5843 5844 5844 5845 5845 5846 5846 5846 5846 5846 5846
5849 5849 5849 5849 5849 5849 5850 5850 5850 5850 5850 5850 5850 5850 5850 5850 5850 5849 5849 5849 5848 5848 5847 5847 5846 5845 5844 5843 5841 5840 5839 5838 5838 5839 5840 5841 5842 5842 5842 5842 5842 5842 5842
5847 5847 5847 5847 5847 5847 5847 5847 5848 5847 5847 5847 5847 5848 5847 5847 5847 5847 5846 5846 5846 5845 5845 5844 5843 5842 5841 5840 5838 5836 5834 5833 5834 5835 5836 5837 5837 5838 5838 5838 5838 5838 5838
5845 5845 5845 5845 5845 5845 5845 5845 5845 5845 5844 5845 5845 5845 5845 5845 5844 5844 5844 5844 5843 5842 5842 5841 5840 5839 5838 5836 5834 5832 5831 5831 5831 5831 5832 5833 5833 5834 5834 5834 5834 5835 5835
5843 5843 5843 5843 5843 5842 5842 5842 5842 5842 5842 5842 5842 5842 5842 5841 5841 5841 5841 5841 5840 5839 5839 5838 5837 5836 5835 5833 5832 5830 5829 5828 5828 5828 5828 5828 5829 5830 5830 5830 5830 5831 5831
5840 5841 5841 5840 5840 5840 5840 5839 5839 5839 5839 5839 5839 5839 5838 5838 5838 5838 5838 5837 5837 5836 5835 5835 5834 5833 5832 5831 5829 5828 5826 5825 5824 5824 5824 5824 5825 5825 5826 5826 5826 5826 5826
5838 5838 5838 5838 5838 5837 5837 5837 5836 5836 5836 5836 5835 5835 5835 5835 5835 5835 5834 5834 5833 5833 5832 5831 5831 5830 5829 5827 5826 5824 5823 5822 5820 5820 5820 5820 5821 5821 5821 5822 5822 5822 5823
5835 5835 5835 5835 5835 5834 5834 5834 5833 5833 5833 5833 5832 5832 5832 5831 5831 5831 5830 5830 5829 5829 5828 5828 5827 5826 5825 5824 5822 5821 5820 5818 5817 5816 5816 5816 5816 5817 5817 5818 5818 5818 5818
5833 5833 5833 5832 5832 5832 5831 5831 5830 5830 5830 5829 5829 5829 5828 5828 5827 5827 5827 5826 5826 5825 5825 5824 5823 5822 5821 5820 5819 5817 5816 5814 5813 5812 5812 5812 5812 5812 5813 5813 5814 5814 5813
5830 5830 5830 5829 5829 5829 5828 5828 5827 5827 5827 5826 5826 5825 5825 5824 5824 5824 5823 5822 5822 5821 5821 5820 5819 5818 5817 5816 5815 5813 5812 5810 5809 5809 5809 5808 5808 5808 5808 5809 5809 5809 5809
5827 5827 5827 5826 5826 5825 5825 5824 5824 5823 5823 5823 5822 5822 5821 5821 5820 5820 5819 5819 5818 5817 5817 5816 5815 5814 5813 5812 5810 5809 5807 5806 5805 5805 5805 5804 5804 5804 5804 5804 5805 5805 5805
5825 5824 5824 5823 5823 5822 5821 5821 5820 5820 5819 5819 5818 5818 5817 5817 5816 5816 5815 5815 5814 5813 5812 5812 5810 5809 5808 5807 5806 5805 5804 5804 5802 5801 5801 5800 5800 5800 5800 5800 5800 5800 5800
5822 5821 5821 5820 5819 5819 5818 5817 5816 5816 5815 5815 5814 5814 5813 5812 5812 5811 5811 5810 5809 5809 5808 5807 5806 5805 5804 5803 5802 5801 5800 5799 5798 5798 5797 5796 5796 5796 5796 5795 5796 5796 5796
5818 5818 5817 5817 5816 5815 5814 5813 5812 5812 5811 5810 5809 5809 5808 5807 5807 5807 5806 5806 5805 5804 5803 5803 5802 5801 5800 5798 5797 5796 5795 5794 5794 5794 5793 5792 5792 5791 5791 5791 5791 5791 5791
5815 5814 5813 5812 5811 5810 5809 5808 5808 5807 5806 5806 5805 5804 5803 5803 5802 5802 5801 5801 5800 5799 5799 5798 5797 5796 5795 5794 5793 5792 5790 5790 5789 5789 5789 5788 5788 5787 5786 5786 5786 5786 5786
5811 5810 5809 5808 5807 5806 5805 5804 5803 5802 5801 5801 5800 5800 5799 5798 5798 5797 5796 5796 5795 5795 5794 5793 5792 5792 5791 5790 5788 5787 5786 5786 5785 5784 5784 5784 5783 5782 5782 5781 5781 5781 5781